Regional Weather Roundup
Issued by NWS

Home | Current Version | Previous Version | Graphics & Text | Print | Product List | Glossary On
Versions: 1 2 3 4 5 6 7 8 9 10 11 12 13 14 15 16 17 18 19 20 21 22 23 24 25 26 27 28 29 30 31 32 33 34 35 36 37 38 39 40 41 42 43 44 45 46 47 48 49 50
000
ASUS45 KSLC 012110
RWRUT

UTAH REGIONAL WEATHER ROUNDUP
NATIONAL WEATHER SERVICE SALT LAKE CITY UT
300 PM MDT MON SEP 01 2014

UTZ001>011-023>025-012200-

NORTHERN UTAH

CITY           SKY/WX    TMP DP  RH WIND       PRES   REMARKS
HILL AFB       SUNNY     75  36  24 W5        30.11S
LOGAN          SUNNY     74  40  29 SE6       30.08F
OGDEN          SUNNY     76  36  23 W9        30.08F
PROVO AIRPORT  SUNNY     75  43  31 N8        30.10F
SALT LAKE CITY MOSUNNY   78  37  22 N7        30.07F
VERNAL         SUNNY     74  39  28 CALM      30.07F
WENDOVER       SUNNY     79  36  21 SE7       30.07F
HEBER CITY     SUNNY     77  36  22 SW15      30.11S
WEST JORDAN    SUNNY     79  46  31 NW9       30.10F

$$

UTZ012>022-026-027-012200-

SOUTHERN UTAH

CITY           SKY/WX    TMP DP  RH WIND       PRES   REMARKS
BRYCE CANYON   SUNNY     78  32  18 NW15G24   30.23F
CEDAR CITY     SUNNY     85  32  15 VRB7      30.08F
MILFORD        SUNNY     85  33  15 CALM      30.05F
MOAB/CYNLANDS  SUNNY     87  32  14 NW10G17   29.98F
PRICE          SUNNY     82  28  14 W17G23    30.10S
ST GEORGE      CLEAR     97  43  15 SW10      29.89F HX  92
KANAB            N/A     91  36  14 SW3       30.06F

$$

REGIONAL REPORTS     COLORADO/ARIZONA

CITY           SKY/WX    TMP DP  RH WIND       PRES   REMARKS
CRAIG, CO      SUNNY     75  34  22 W18G28    30.11F
GRAND JUNCTION SUNNY     82  37  20 NW8       30.02F
RIFLE          SUNNY     81  33  17 W24       30.05F
MONTROSE       SUNNY     83  36  18 N10       30.08F
CORTEZ         SUNNY     86  29  12 W14G24    30.11F
PAGE, AZ       SUNNY     95  35  12 MISG      29.96F HX  90
GRAND CANYON   SUNNY     82  37  20 S9        30.19F
KINGMAN        SUNNY     97  38  13 SW21      29.94F HX  92
FLAGSTAFF      SUNNY     78  41  26 SW15G24   30.23F

$$

REGIONAL REPORTS    NEVADA/IDAHO/WYOMING

CITY           SKY/WX    TMP DP  RH WIND       PRES   REMARKS
LAS VEGAS, NV  SUNNY    104  39  10 E8        29.78F HX  98
ELY            SUNNY     83  30  14 NW9G17    30.12F
ELKO           SUNNY     81  28  14 VRB5      30.08F
POCATELLO, ID  MOSUNNY   73  38  27 W14       30.09F
BURLEY         SUNNY     71  41  33 W10       30.08F
EVANSTON, WY   MOSUNNY   68  32  26 W22G30    30.20S
ROCK SPRINGS   SUNNY     70  29  21 W29G39    30.13F

$$


USA.gov is the U.S. government's official web portal to all federal, state and local government web resources and services.